星链-31158 (STARLINK-31158 )

导读

STARLINK-31158是美国SpaceX公司星链星座的一颗第二代小型星链卫星(V2.0 mini),于北京时间2024年1月29日由猎鹰九号火箭从肯尼迪航天中心发射升空,属于G6-38组批任务。单星发射质量约790千克,通信速率可达165Gbps,配备激光星间链路,运行在近地轨道,为全球提供高速低延迟宽带互联网服务,是星链星座大规模组网的重要组成部分。

Basic Information
目录编号:
58854
目录名称:
STARLINK-31158
国际标识:
2024-019B
轨道中心:
EARTH
卫星名称:
星链-31158
卫星全名:
星链-31158 (STARLINK-31158 )
卫星状态:
在轨 (已飞行871 天)
发射日期:
2024-01-29 UTC
国别 :
美国 (US)
星等 :
--
Orbit Information
数据来源 国际轨道数据
星历时间: 2026-06-17T06:39:34+0800
1天前
查看轨道信息
半长轴: 6861.192km
偏心率: 0.0002077
轨道倾角: 42.997°
近地点辐角 277.262°
升交点赤经 48.245°
平近点角 82.800°
近地点: 481.629km
远地点: 484.481km
周期: 94.267分钟
每日圈数: 15.275782
Detailed Information
固有亮度:
5
最大亮度:
0.3
卫星平台:
Starlink v2.0 mini
覆盖范围:
全球
运营商:
太空探索技术公司
运营商所在国:
美国
制造商(研发单位):
太空探索技术公司
制造商所在国:
美国
使用方式:
暂无
Satellite Introduction
星链(Starlink)计划是由太空探索技术公司(SpaceX)提出的一个巨型低轨卫星互联网星座项目,计划在2019年至2024年间在太空搭建由约1.2万颗卫星组成的“星链”网络,其中1584颗将部署在地球上空550千米处的近地轨道,并从2020年开始工作。该卫星仍在工作。
2D Orbit Map
3D Orbit Map
Orbit Altitude Analysis Chart
Orbit Inclination Analysis Chart
Orbit Comprehensive Analysis Chart
View Comprehensive Chart